SCP
0 0 0 0 0 0 0 0 0 0 0 0 0 0 0 0 0 0 0 0 0 0 0 0 0 0 0 0 0 0 0 0 0 0 0 0 0 0 0 0 0 0 0 0
0 0 0 0 0 0 0 0 0 0 0 0 0 0 0 0 0 0 0 0 0 0 0 0 0 0 0 0 0 0 0 0 0 0 0 0 0 0 0 0 0 0 0 0
0 0 0 0 0 0 0 0 0 0 0 0 0 0 0 0 0 0 0 0 0 0 0 0 0 0 0 0 0 0 0 0 0 0 0 0 0 0 0 0 0 0 0 0
0 0 0 0 0 0 0 0 0 0 0 0 0 0 0 0 0 0 0 0 0 0 0 0 0 0 0 0 0 0 0 0 0 0 0 0 0 0 0 0 0 0 0 0
0 0 0 0 0 0 0 0 0 0 0 0 0 0 0 0 0 0 0 0 0 0 0 0 0 0 0 0 0 0 0 0 0 0 0 0 0 0 0 0 0 0 0 0
0 0 0 0 0 0 0 0 0 0 0 0 0 0 0 0 0 0 0 0 0 0 0 0 0 0 0 0 0 0 0 0 0 0 0 0 0 0 0 0 0 0 0 0
0 0 0 0 0 0 0 0 0 0 0 0 0 0 0 0 0 0 0 0 0 0 0 0 0 0 0 0 0 0 0 0 0 0 0 0 0 0 0 0 0 0 0 0
0 0 0 0 0 0 0 0 0 0 0 0 0 0 0 0 0 0 0 0 0 0 0 0 0 0 0 0 0 0 0 0 0 0 0 0 0 0 0 0 0 0 0 0
0 0 0 0 0 0 0 0 0 0 0 0 0 0 0 0 0 0 0 0 0 0 0 0 0 0 0 0 0 0 0 0 0 0 0 0 0 0 0 0 0 0 0 0
0 0 0 0 0 0 0 0 0 0 0 0 0 0 0 0 0 0 0 0 0 0 0 0 0 0 0 0 0 0 0 0 0 0 0 0 0 0 0 0 0 0 0 0
0 0 0 0 0 0 0 0 0 0 0 0 0 0 0 0 0 0 0 0 0 0 0 0 0 0 0 0 0 0 0 0 0 0 0 0 0 0 0 0 0 0 0 0
0 0 0 0 0 0 0 0 0 0 0 0 0 0 0 0 0 0 0 0 0 0 0 0 0 0 0 0 0 0 0 0 0 0 0 0 0 0 0 0 0 0 0 0
0 0 0 0 0 0 0 0 0 0 0 0 0 0 0 0 0 0 0 0 0 0 0 0 0 0 0 0 0 0 0 0 0 0 0 0 0 0 0 0 0 0 0 0
0 0 0 0 0 0 0 0 0 0 0 0 0 0 0 0 0 0 0 0 0 0 0 0 0 0 0 0 0 0 0 0 0 0 0 0 0 0 0 0 0 0 0 0
0 0 0 0 0 0 0 0 0 0 0 0 0 0 0 0 0 0 0 0 0 0 0 0 0 0 0 0 0 0 0 0 0 0 0 0 0 0 0 0 0 0 0 0
0 0 0 0 0 0 0 0 0 0 0 0 0 0 0 0 0 0 0 0 0 0 0 0 0 0 0 0 0 0 0 0 0 0 0 0 0 0 0 0 0 0 0 0
0 0 0 0 0 0 0 0 0 0 0 0 0 0 0 0 0 0 0 0 0 0 0 0 0 0 0 0 0 0 0 0 0 0 0 0 0 0 0 0 0 0 0 0
0 0 0 0 0 0 0 0 0 0 0 0 0 0 0 0 0 0 0 0 0 0 0 0 0 0 0 0 0 0 0 0 0 0 0 0 0 0 0 0 0 0 0 0
0 0 0 0 0 0 0 0 0 0 0 0 0 0 0 0 0 0 0 0 0 0 0 0 0 0 0 0 0 0 0 0 0 0 0 0 0 0 0 0 0 0 0 0
0 0 0 0 0 0 0 0 0 0 0 0 0 0 0 0 0 0 -0 -0 -0 -0 -0 -0 -0 0 0 0 0 0 0 0 0 0 0 0 0 0 0 0 0 0 0 0
0 0 0 0 0 0 0 0 0 0 0 0 0 0 0 0 0 0 0 0 0 0 0 0 -0 -0 0 0 0 0 0 0 0 0 0 0 0 0 0 0 0 0 0 0
0 0 0 0 0 0 0 0 0 0 0 0 0 0 0 0 0 0 0 0 0 0 0 0 0 0 0 0 0 0 0 0 0 0 0 0 0 0 0 0 0 0 0 0
0 0 0 0 0 0 0 0 0 0 0 0 0 0 0 0 0 0 0 0 0 0 0 0 0 0 0 0 0 0 0 0 0 0 0 0 0 0 0 0 0 0 0 0
0 0 0 0 0 0 0 0 0 0 0 0 0 0 0 0 0 0 0 0 0 0 0 0 0 0 0 0 0 0 0 0 0 0 0 0 0 0 0 0 0 0 0 0
0 0 0 0 0 0 0 0 0 0 0 0 0 0 0 0 0 0 0 0 0 0 0 0 0 0 0 0 0 0 0 0 0 0 0 0 0 0 0 0 0 0 0 0
0 0 0 0 0 0 0 0 0 0 0 0 0 0 0 0 0 0 0 0 0 0 0 0 0 0 0 0 0 0 0 0 0 0 0 0 0 0 0 0 0 0 0 0
Wind_Speed
3 3 3 7 7 4 2 3 7 8 4 6 11 18 24 14 10 14 15 13 14 18 13 10 13 13 11 13 15 16 16 13 11 7 6 5 5 5 5 6 7 8 8 8
4 4 7 3 3 3 3 4 7 7 2 5 8 16 19 13 11 15 15 15 16 14 8 10 12 14 17 17 17 17 18 17 16 11 7 4 4 4 5 5 7 9 9 9
5 5 1 3 3 3 4 5 6 5 4 3 7 13 9 7 5 7 10 10 10 14 14 12 13 16 16 19 21 19 20 18 17 13 7 4 3 2 4 6 7 9 10 9
5 4 2 3 4 5 6 6 4 2 3 6 3 10 12 8 9 9 10 10 13 13 13 11 13 14 19 21 17 18 18 18 17 16 14 13 11 10 10 7 7 8 9 9
5 2 4 5 5 6 6 1 1 1 1 5 2 4 14 7 9 11 10 10 12 12 13 14 16 18 18 16 15 16 15 17 17 18 19 17 13 9 5 5 8 8 8 8
6 2 3 4 0 1 2 3 4 4 3 4 4 5 12 8 9 9 8 7 8 9 10 12 11 10 11 11 12 13 16 17 17 18 18 19 17 12 9 9 9 8 6 7
6 3 1 2 2 2 3 3 5 6 3 6 2 4 14 16 9 8 12 12 10 7 7 9 9 11 12 13 14 14 17 18 18 19 19 19 17 15 16 14 12 10 8 8
3 7 2 2 4 3 3 5 4 4 5 7 3 9 14 14 9 8 10 11 11 10 7 8 9 9 10 11 13 14 17 18 17 19 19 16 15 12 11 13 11 12 10 10
4 6 1 1 1 5 3 3 3 3 3 5 8 10 15 11 8 6 6 7 10 10 9 9 8 8 9 10 13 16 16 16 17 18 16 15 16 15 13 12 11 9 9 8
5 5 3 1 1 1 2 5 4 2 3 6 8 7 8 10 12 11 10 10 10 9 9 10 9 8 9 10 10 12 15 16 15 15 16 14 15 15 13 12 13 12 12 10
4 4 5 2 4 6 4 3 3 2 3 4 7 10 9 10 12 11 12 11 10 11 11 11 9 7 7 7 9 11 13 13 13 15 15 15 14 14 13 13 14 13 12 12
2 4 4 6 2 3 6 6 7 4 6 5 5 14 12 11 10 9 11 12 11 12 12 10 9 8 6 6 7 9 10 12 13 12 13 14 13 14 15 16 15 14 13 13
4 4 4 7 2 1 2 3 5 3 2 5 6 15 7 8 10 11 11 12 12 12 11 10 8 7 6 6 6 8 10 11 10 10 12 14 15 16 18 17 15 14 14 13
5 4 6 9 8 3 4 5 6 6 5 8 14 21 22 21 18 17 14 12 11 11 10 9 8 7 6 5 6 8 9 10 10 12 14 17 19 19 18 16 15 15 14 13
4 4 6 9 9 6 7 10 10 13 14 14 20 20 26 20 15 13 11 10 11 11 10 9 9 8 7 6 6 8 9 10 11 13 16 19 16 15 14 15 14 14 14 14
3 4 3 6 8 8 8 14 19 19 16 15 20 24 19 11 7 8 9 8 9 10 10 10 9 9 9 8 7 8 10 10 12 15 17 15 13 14 14 14 13 13 13 12
6 6 4 7 4 4 10 15 17 11 9 10 13 13 7 10 11 10 9 7 7 9 10 10 10 10 10 9 8 9 10 9 12 15 15 13 13 14 14 14 14 14 13 12
8 5 3 4 1 11 12 5 8 10 12 11 10 10 10 10 11 9 7 4 8 9 10 11 10 11 10 10 8 7 7 8 10 13 14 13 12 13 11 12 13 13 11 11
7 7 4 3 6 12 10 10 6 7 9 6 6 8 8 7 6 6 3 3 7 10 11 11 11 11 11 11 9 7 7 7 9 13 13 11 11 12 12 14 14 13 11 11
3 4 4 4 6 11 11 5 0 1 8 4 2 4 6 6 7 8 8 10 11 11 10 10 9 10 11 11 7 7 8 8 12 13 11 10 11 13 15 15 13 11 11 11
3 3 5 7 9 13 11 4 0 3 7 3 3 6 6 5 7 10 12 12 11 12 12 10 10 9 11 10 7 8 10 12 12 9 8 9 11 13 12 11 10 10 11 10
8 6 7 6 7 13 6 4 6 8 6 7 8 8 9 10 10 11 11 10 10 10 10 9 9 10 11 9 7 9 12 12 9 7 8 9 10 10 10 10 10 11 12 11
9 10 7 12 12 8 4 8 8 7 11 12 10 10 10 10 11 11 9 9 9 9 9 9 9 11 12 9 7 11 13 11 9 8 8 8 8 9 9 10 11 11 11 10
7 6 6 10 13 12 12 11 12 14 16 12 10 9 9 10 9 9 8 8 8 9 10 9 10 12 14 12 10 10 12 10 9 9 8 6 7 8 8 9 10 11 11 11
6 5 8 16 15 13 11 12 12 11 10 10 10 8 6 6 6 6 7 9 9 9 9 8 10 12 14 14 13 12 11 9 9 9 7 6 7 8 9 10 10 12 11 13
10 14 17 22 14 14 15 10 11 13 11 9 6 5 4 3 5 7 8 9 9 10 10 10 11 12 14 13 14 13 10 9 9 8 6 5 5 6 7 8 8 17 16 20
Wind_Direction
34 60 236 229 210 214 206 234 263 264 211 193 240 259 270 265 228 242 244 238 235 239 237 208 203 199 195 196 198 200 199 193 180 175 180 183 202 199 197 199 195 191 189 186
21 269 244 215 174 192 218 260 271 282 203 209 276 275 270 264 236 232 236 233 233 238 232 209 199 197 200 202 202 202 203 197 194 193 178 172 171 186 195 195 195 195 192 190
221 249 186 164 184 208 237 225 248 271 324 272 307 297 290 290 251 250 237 234 230 228 231 215 203 203 203 206 205 204 204 200 197 186 164 144 131 139 173 195 200 198 193 192
252 262 198 213 233 194 262 244 231 281 329 302 357 302 293 291 298 267 247 232 233 230 228 218 206 206 208 212 205 205 201 200 195 185 188 186 191 198 197 189 188 188 190 191
269 227 201 226 238 190 228 28 74 333 242 305 276 244 285 310 288 275 259 241 236 229 222 221 213 213 213 208 201 202 200 201 195 194 197 199 206 202 170 170 181 188 192 194
250 254 205 216 55 146 129 62 54 54 70 294 244 193 281 269 249 280 295 284 265 253 236 233 226 215 212 199 198 196 199 204 198 198 202 205 206 190 176 184 188 192 193 197
317 302 248 146 113 34 89 68 352 340 348 261 198 214 254 260 254 258 281 294 299 286 259 245 230 218 214 202 200 197 200 206 200 201 205 208 207 196 196 192 194 190 193 200
313 305 244 199 196 189 179 154 175 254 264 287 273 240 257 270 287 272 269 281 294 292 278 261 245 230 222 209 201 199 204 208 202 204 208 208 204 201 204 198 192 194 198 200
211 274 316 162 200 155 160 202 176 164 280 281 277 288 296 293 315 324 311 305 300 300 296 279 264 239 225 213 207 204 206 209 206 206 206 206 204 204 203 196 194 195 195 192
179 266 297 355 77 17 167 158 108 140 279 285 288 277 261 293 303 314 317 315 308 308 301 289 273 251 231 217 207 200 207 211 209 205 205 207 206 207 202 194 196 197 195 192
178 218 297 315 213 206 149 161 156 163 195 223 278 268 241 246 267 286 295 298 297 296 292 286 279 266 243 219 204 204 207 210 209 207 206 209 205 203 201 202 202 198 194 193
148 134 268 268 243 174 180 191 160 187 245 206 245 269 258 259 274 280 284 290 291 290 290 290 287 282 259 232 215 211 211 214 214 207 206 211 207 201 204 208 203 196 195 194
136 114 343 337 345 71 229 213 193 186 182 204 224 267 275 291 296 293 291 295 298 301 304 306 306 297 275 246 223 218 218 219 211 203 207 210 211 208 210 209 202 196 195 193
128 168 198 229 249 249 235 233 195 186 221 239 234 261 283 290 297 305 311 311 309 306 308 313 315 310 294 262 233 225 226 217 209 206 211 216 216 214 213 208 202 197 193 192
124 226 241 254 269 269 244 250 232 216 224 238 261 266 276 289 302 304 306 312 316 319 325 325 320 315 308 283 249 232 230 217 209 212 218 223 220 216 213 208 202 195 192 193
143 221 251 264 256 254 254 249 249 247 241 243 263 273 276 293 303 303 307 312 318 323 322 320 318 315 307 289 265 242 234 220 209 218 225 224 218 214 212 207 199 194 192 188
192 196 232 265 274 312 265 238 237 232 221 214 241 257 308 323 317 310 308 316 318 317 312 310 307 301 294 285 268 253 243 221 214 224 229 224 217 216 212 205 199 195 190 185
173 171 215 279 333 239 244 244 226 234 249 234 248 275 294 288 288 282 272 295 319 315 309 304 299 296 293 288 280 267 251 226 224 231 233 225 216 217 210 204 202 197 189 188
174 165 201 221 252 271 287 271 222 214 270 249 236 268 284 291 309 291 253 287 295 294 290 287 287 289 290 291 289 278 262 241 236 239 238 226 212 210 204 205 203 195 187 189
107 156 185 196 225 253 251 256 71 140 281 271 210 291 303 333 335 296 304 312 305 299 295 295 299 299 298 298 302 285 273 257 249 247 241 224 211 209 209 207 201 192 190 192
141 172 202 217 237 263 261 281 136 209 252 296 295 298 298 277 255 271 295 301 300 303 304 307 309 307 302 307 308 288 280 270 265 257 239 221 211 212 211 204 194 184 187 188
194 199 210 201 221 256 250 169 202 240 284 300 300 297 294 288 288 295 299 298 303 306 307 312 313 309 308 309 303 289 284 280 274 256 237 223 211 205 203 196 191 185 185 187
210 206 206 205 226 246 230 229 256 283 288 289 286 288 290 292 295 300 299 302 305 304 305 308 308 307 308 307 297 289 290 292 284 265 246 227 208 199 193 191 190 186 187 191
232 217 231 254 258 260 267 269 272 273 277 280 277 279 283 286 291 296 297 298 301 300 305 308 312 310 309 310 303 288 290 292 283 270 254 224 205 199 194 193 192 193 194 195
220 231 244 260 271 278 258 257 266 274 278 281 282 283 283 287 290 289 292 294 296 298 300 304 303 301 302 305 303 299 295 294 284 271 254 225 208 198 198 201 204 203 207 202
214 240 253 265 269 272 281 277 279 282 282 282 285 293 296 286 286 290 290 291 293 297 300 302 299 299 301 303 301 300 298 292 281 275 254 225 208 201 199 204 214 222 217 221